When you browse on this site, cookies collect data to enhance your experience and personalize the content and advertising you see.
Visit our Privacy Policy to learn more. By continuing to use the site, you agree to this use of cookies and data.
  • In United Kingdom
  • List of Countries
  • For 7 days
  • Water Temperature
  • Weather Map
  • Weather Widgets
  • user-avatar
    Login

    Hourly Weather Puttlingen

    Today, 16 September, Monday

    Time Temperature Precipitation Wind Pressure Humidity
    00:00 +15°C° 0 mm 1 mps 744 mmHg 72%
    01:00 +14°C° 0 mm 1 mps 743 mmHg 73%
    02:00 +14°C° 0 mm 1 mps 743 mmHg 73%
    03:00 +13°C° 0 mm 1 mps 743 mmHg 73%
    04:00 +13°C° 0 mm 1 mps 743 mmHg 72%
    05:00 +13°C° 0 mm 0 mps 743 mmHg 71%
    06:00 +13°C° 0 mm 0 mps 743 mmHg 70%
    07:00 +15°C° 0 mm 0 mps 743 mmHg 62%
    08:00 +18°C° 0 mm 0 mps 743 mmHg 55%
    09:00 +21°C° 0 mm 0 mps 743 mmHg 48%
    10:00 +24°C° 0 mm 1 mps 743 mmHg 43%
    11:00 +25°C° 0 mm 2 mps 743 mmHg 38%
    12:00 +26°C° 0 mm 2 mps 743 mmHg 34%
    13:00 +26°C° 0 mm 2 mps 742 mmHg 35%
    14:00 +26°C° 0 mm 3 mps 742 mmHg 36%
    15:00 +26°C° 0 mm 3 mps 742 mmHg 37%
    16:00 +24°C° 0 mm 3 mps 741 mmHg 45%
    17:00 +21°C° 0 mm 2 mps 741 mmHg 54%
    18:00 +19°C° 0 mm 2 mps 741 mmHg 63%
    19:00 +18°C° 0 mm 2 mps 742 mmHg 67%
    20:00 +18°C° 0 mm 1 mps 742 mmHg 72%
    21:00 +16°C° 0 mm 1 mps 742 mmHg 77%
    22:00 +16°C° 0 mm 1 mps 742 mmHg 78%
    23:00 +16°C° 0 mm 1 mps 742 mmHg 80%

    Tomorrow, 17 September, Tuesday

    Time Temperature Precipitation Wind Pressure Humidity
    00:00 +16°C° 0 mm 1 mps 742 mmHg 81%
    01:00 +16°C° 0 mm 1 mps 742 mmHg 83%
    02:00 +16°C° 0 mm 1 mps 742 mmHg 85%
    03:00 +16°C° 0 mm 1 mps 742 mmHg 86%
    04:00 +16°C° 0 mm 1 mps 742 mmHg 87%
    05:00 +15°C° 0 mm 1 mps 743 mmHg 88%
    06:00 +15°C° 0 mm 1 mps 743 mmHg 89%
    07:00 +16°C° 0 mm 1 mps 743 mmHg 81%
    08:00 +17°C° 0 mm 2 mps 743 mmHg 74%
    09:00 +18°C° 0 mm 2 mps 743 mmHg 66%
    10:00 +19°C° 0 mm 2 mps 743 mmHg 58%
    11:00 +20°C° 0 mm 2 mps 743 mmHg 49%
    12:00 +21°C° 0 mm 2 mps 743 mmHg 41%
    13:00 +21°C° 0 mm 3 mps 743 mmHg 40%
    14:00 +21°C° 0 mm 3 mps 742 mmHg 39%
    15:00 +21°C° 0 mm 3 mps 742 mmHg 39%
    16:00 +19°C° 0 mm 3 mps 742 mmHg 47%
    17:00 +17°C° 0 mm 3 mps 743 mmHg 56%
    18:00 +14°C° 0 mm 3 mps 743 mmHg 64%
    19:00 +13°C° 0 mm 3 mps 743 mmHg 69%
    20:00 +11°C° 0 mm 3 mps 744 mmHg 74%
    21:00 +10°C° 0 mm 3 mps 745 mmHg 79%
    22:00 +9°C° 0 mm 3 mps 745 mmHg 81%
    23:00 +9°C° 0 mm 3 mps 745 mmHg 83%

    Day after tomorrow, 18 September, Wednesday

    Time Temperature Precipitation Wind Pressure Humidity
    00:00 +8°C° 0 mm 3 mps 745 mmHg 85%
    01:00 +7°C° 0 mm 3 mps 745 mmHg 84%
    02:00 +7°C° 0 mm 3 mps 745 mmHg 83%
    03:00 +5°C° 0 mm 3 mps 745 mmHg 82%
    04:00 +5°C° 0 mm 3 mps 746 mmHg 81%
    05:00 +5°C° 0 mm 3 mps 746 mmHg 79%
    06:00 +5°C° 0 mm 3 mps 746 mmHg 78%
    07:00 +7°C° 0 mm 4 mps 746 mmHg 68%
    08:00 +10°C° 0 mm 4 mps 746 mmHg 59%
    09:00 +13°C° 0 mm 4 mps 746 mmHg 50%
    10:00 +14°C° 0 mm 4 mps 746 mmHg 46%
    11:00 +15°C° 0 mm 4 mps 746 mmHg 42%
    12:00 +17°C° 0 mm 4 mps 746 mmHg 39%
    13:00 +17°C° 0 mm 4 mps 745 mmHg 38%
    14:00 +18°C° 0 mm 4 mps 745 mmHg 38%
    15:00 +18°C° 0 mm 4 mps 745 mmHg 38%
    16:00 +16°C° 0 mm 3 mps 745 mmHg 44%
    17:00 +13°C° 0 mm 3 mps 745 mmHg 51%
    18:00 +12°C° 0 mm 2 mps 745 mmHg 57%
    19:00 +10°C° 0 mm 2 mps 746 mmHg 61%
    20:00 +9°C° 0 mm 2 mps 746 mmHg 65%
    21:00 +8°C° 0 mm 2 mps 747 mmHg 69%
    22:00 +8°C° 0 mm 3 mps 747 mmHg 71%
    23:00 +8°C° 0 mm 3 mps 747 mmHg 74%

    19 September, Thursday

    Time Temperature Precipitation Wind Pressure Humidity
    00:00 +8°C° 0 mm 3 mps 747 mmHg 76%
    01:00 +7°C° 0 mm 3 mps 747 mmHg 77%
    02:00 +7°C° 0 mm 3 mps 747 mmHg 79%
    03:00 +7°C° 0 mm 3 mps 747 mmHg 80%
    04:00 +7°C° 0 mm 3 mps 747 mmHg 80%
    05:00 +7°C° 0 mm 3 mps 747 mmHg 81%
    06:00 +7°C° 0 mm 2 mps 747 mmHg 82%
    07:00 +9°C° 0 mm 3 mps 748 mmHg 73%
    08:00 +11°C° 0 mm 4 mps 748 mmHg 64%
    09:00 +13°C° 0 mm 4 mps 748 mmHg 55%
    10:00 +14°C° 0 mm 4 mps 748 mmHg 52%
    11:00 +15°C° 0 mm 4 mps 748 mmHg 49%
    12:00 +17°C° 0 mm 4 mps 748 mmHg 46%
    13:00 +17°C° 0 mm 4 mps 748 mmHg 45%
    14:00 +17°C° 0 mm 4 mps 747 mmHg 44%
    15:00 +17°C° 0 mm 4 mps 747 mmHg 44%
    16:00 +14°C° 0 mm 4 mps 747 mmHg 49%
    17:00 +13°C° 0 mm 3 mps 747 mmHg 54%
    18:00 +11°C° 0 mm 3 mps 747 mmHg 59%
    19:00 +10°C° 0 mm 3 mps 748 mmHg 61%
    20:00 +9°C° 0 mm 3 mps 748 mmHg 62%
    21:00 +8°C° 0 mm 3 mps 748 mmHg 64%
    22:00 +8°C° 0 mm 3 mps 748 mmHg 65%
    23:00 +8°C° 0 mm 3 mps 748 mmHg 67%

    20 September, Friday

    Time Temperature Precipitation Wind Pressure Humidity
    00:00 +7°C° 0 mm 3 mps 748 mmHg 68%
    01:00 +7°C° 0 mm 3 mps 748 mmHg 68%
    02:00 +7°C° 0 mm 3 mps 748 mmHg 69%
    03:00 +6°C° 0 mm 4 mps 748 mmHg 69%
    04:00 +6°C° 0 mm 4 mps 747 mmHg 68%
    05:00 +6°C° 0 mm 4 mps 747 mmHg 68%
    06:00 +6°C° 0 mm 4 mps 747 mmHg 67%
    07:00 +8°C° 0 mm 5 mps 747 mmHg 59%
    08:00 +10°C° 0 mm 5 mps 748 mmHg 52%
    09:00 +13°C° 0 mm 6 mps 748 mmHg 44%
    10:00 +15°C° 0 mm 6 mps 747 mmHg 41%
    11:00 +16°C° 0 mm 6 mps 747 mmHg 37%
    12:00 +17°C° 0 mm 6 mps 746 mmHg 33%
    13:00 +17°C° 0 mm 6 mps 746 mmHg 34%
    14:00 +17°C° 0 mm 6 mps 746 mmHg 35%
    15:00 +17°C° 0 mm 5 mps 745 mmHg 35%
    16:00 +16°C° 0 mm 5 mps 745 mmHg 40%
    17:00 +14°C° 0 mm 5 mps 745 mmHg 46%
    18:00 +12°C° 0 mm 4 mps 745 mmHg 51%
    19:00 +12°C° 0 mm 5 mps 745 mmHg 52%
    20:00 +12°C° 0 mm 5 mps 745 mmHg 52%
    21:00 +10°C° 0 mm 5 mps 745 mmHg 53%
    22:00 +10°C° 0 mm 5 mps 744 mmHg 55%
    23:00 +10°C° 0 mm 5 mps 744 mmHg 57%

    21 September, Saturday

    Time Temperature Precipitation Wind Pressure Humidity
    00:00 +9°C° 0 mm 5 mps 744 mmHg 59%
    01:00 +10°C° 0 mm 4 mps 744 mmHg 62%
    02:00 +8°C° 0 mm 4 mps 743 mmHg 64%
    03:00 +8°C° 0 mm 4 mps 743 mmHg 67%
    04:00 +7°C° 0 mm 4 mps 743 mmHg 68%
    05:00 +7°C° 0 mm 4 mps 743 mmHg 69%
    06:00 +7°C° 0 mm 4 mps 742 mmHg 70%
    07:00 +10°C° 0 mm 4 mps 743 mmHg 63%
    08:00 +12°C° 0 mm 3 mps 743 mmHg 56%
    09:00 +14°C° 0 mm 3 mps 743 mmHg 49%
    10:00 +18°C° 0 mm 3 mps 743 mmHg 47%
    11:00 +20°C° 0 mm 3 mps 742 mmHg 45%
    12:00 +22°C° 0 mm 3 mps 742 mmHg 43%
    13:00 +24°C° 0 mm 3 mps 742 mmHg 44%
    14:00 +24°C° 0 mm 3 mps 741 mmHg 45%
    15:00 +25°C° 0 mm 3 mps 741 mmHg 46%
    16:00 +21°C° 0 mm 3 mps 741 mmHg 53%
    17:00 +19°C° 0 mm 3 mps 740 mmHg 60%
    18:00 +17°C° 0 mm 3 mps 740 mmHg 67%
    19:00 +16°C° 0 mm 2 mps 740 mmHg 66%
    20:00 +16°C° 0 mm 2 mps 740 mmHg 66%
    21:00 +15°C° 0 mm 2 mps 741 mmHg 66%
    22:00 +15°C° 0 mm 2 mps 741 mmHg 67%
    23:00 +14°C° 0 mm 1 mps 741 mmHg 68%
    Show more